TimeEST,TemperatureF,Dew PointF,Humidity,Sea Level PressureIn,VisibilityMPH,Wind Direction,Wind SpeedMPH,Gust SpeedMPH,PrecipitationIn,Events,Conditions,WindDirDegrees,DateUTC
12:53 AM,21.9,18.0,85,30.19,9.0,WSW,6.9,-,N/A,,Clear,250,2013-01-05 05:53:00
1:53 AM,21.0,18.0,88,30.20,8.0,West,4.6,-,N/A,,Clear,260,2013-01-05 06:53:00
2:53 AM,21.0,18.0,88,30.22,7.0,West,3.5,-,N/A,,Clear,260,2013-01-05 07:53:00
3:53 AM,21.0,18.0,88,30.24,6.0,West,5.8,-,N/A,,Clear,260,2013-01-05 08:53:00
4:53 AM,19.0,17.1,92,30.24,5.0,WSW,3.5,-,N/A,,Clear,250,2013-01-05 09:53:00
5:53 AM,19.0,18.0,96,30.25,4.0,Calm,Calm,-,N/A,,Clear,0,2013-01-05 10:53:00
6:53 AM,16.0,14.0,92,30.25,3.0,Calm,Calm,-,N/A,,Partly Cloudy,0,2013-01-05 11:53:00
6:55 AM,15.8,14.0,93,30.20,0.2,Calm,Calm,-,N/A,Fog,Light Freezing Fog,0,2013-01-05 11:55:00
7:01 AM,15.8,14.0,93,30.19,3.0,Calm,Calm,-,N/A,,Clear,0,2013-01-05 12:01:00
7:15 AM,15.8,14.0,93,30.20,2.5,Calm,Calm,-,N/A,,Partly Cloudy,0,2013-01-05 12:15:00
7:53 AM,17.1,14.0,88,30.27,5.0,South,4.6,-,N/A,,Clear,180,2013-01-05 12:53:00
8:53 AM,17.1,15.1,92,30.26,3.0,Calm,Calm,-,N/A,,Scattered Clouds,0,2013-01-05 13:53:00
9:53 AM,19.9,19.9,100,30.27,3.0,Calm,Calm,-,N/A,,Scattered Clouds,0,2013-01-05 14:53:00
10:53 AM,24.1,21.0,88,30.28,5.0,SW,5.8,-,N/A,,Mostly Cloudy,220,2013-01-05 15:53:00
11:53 AM,26.1,23.0,88,30.24,5.0,SW,4.6,-,N/A,,Overcast,220,2013-01-05 16:53:00
12:00 PM,26.6,21.2,80,30.19,5.0,South,5.8,-,N/A,,Overcast,170,2013-01-05 17:00:00
12:19 PM,26.6,24.8,93,30.18,5.0,SSW,8.1,-,N/A,,Mostly Cloudy,200,2013-01-05 17:19:00
12:46 PM,28.4,24.8,86,30.15,6.0,SSW,4.6,-,N/A,,Haze,200,2013-01-05 17:46:00
12:53 PM,30.0,24.1,79,30.18,6.0,South,6.9,-,N/A,,Haze,170,2013-01-05 17:53:00
1:53 PM,30.9,24.1,76,30.15,7.0,South,12.7,-,N/A,,Partly Cloudy,180,2013-01-05 18:53:00
2:53 PM,30.9,21.9,69,30.14,7.0,SSW,11.5,-,N/A,,Overcast,200,2013-01-05 19:53:00
3:53 PM,30.0,21.0,69,30.12,7.0,South,9.2,-,N/A,,Mostly Cloudy,190,2013-01-05 20:53:00
4:53 PM,28.9,21.0,72,30.11,7.0,South,8.1,-,N/A,,Overcast,190,2013-01-05 21:53:00
5:53 PM,28.9,21.0,72,30.09,8.0,South,6.9,-,N/A,,Overcast,190,2013-01-05 22:53:00
6:53 PM,28.9,21.9,75,30.10,8.0,South,6.9,-,N/A,,Overcast,190,2013-01-05 23:53:00
7:53 PM,28.9,23.0,78,30.09,8.0,SSW,6.9,-,N/A,,Overcast,210,2013-01-06 00:53:00
8:53 PM,30.0,24.1,79,30.07,4.0,SSW,9.2,-,0.00,Snow,Light Snow,210,2013-01-06 01:53:00
9:08 PM,30.2,24.8,80,30.02,2.0,SW,9.2,-,0.00,Snow,Light Snow,220,2013-01-06 02:08:00
9:22 PM,30.2,26.6,86,30.02,1.8,SW,8.1,-,0.00,Snow,Light Snow,220,2013-01-06 02:22:00
9:53 PM,30.0,27.0,88,30.06,1.5,SSW,8.1,-,0.00,Snow,Light Snow,210,2013-01-06 02:53:00
10:10 PM,30.2,28.4,93,30.01,1.0,SSW,6.9,-,0.00,Snow,Light Snow,200,2013-01-06 03:10:00
10:17 PM,30.2,28.4,93,30.01,0.8,SSW,6.9,-,0.01,Snow,Light Snow,210,2013-01-06 03:17:00
10:34 PM,30.2,28.4,93,30.00,0.5,SSW,6.9,-,0.02,Fog-Snow,Snow,200,2013-01-06 03:34:00
10:46 PM,30.2,28.4,93,30.00,1.0,SSW,6.9,-,0.02,Snow,Light Snow,200,2013-01-06 03:46:00
10:49 PM,30.2,28.4,93,30.00,2.0,SSW,6.9,-,0.02,Snow,Light Snow,200,2013-01-06 03:49:00
10:53 PM,30.0,28.9,96,30.04,2.0,SSW,6.9,-,0.02,Snow,Light Snow,210,2013-01-06 03:53:00
11:15 PM,30.2,28.4,93,29.99,2.0,SW,5.8,-,0.00,Snow,Light Snow,220,2013-01-06 04:15:00
11:22 PM,30.2,28.4,93,29.99,3.0,SSW,5.8,-,0.00,Snow,Light Snow,200,2013-01-06 04:22:00
11:53 PM,30.9,28.9,92,30.02,4.0,SSW,11.5,-,0.00,,Overcast,210,2013-01-06 04:53:00